TimeEDT,TemperatureF,Dew PointF,Humidity,Sea Level PressureIn,VisibilityMPH,Wind Direction,Wind SpeedMPH,Gust SpeedMPH,PrecipitationIn,Events,Conditions,WindDirDegrees,DateUTC
12:53 AM,66.9,64.0,90,29.96,10.0,Calm,Calm,-,N/A,,Partly Cloudy,0,2013-06-04 04:53:00
1:53 AM,66.0,63.0,90,29.95,10.0,Calm,Calm,-,N/A,,Clear,0,2013-06-04 05:53:00
2:53 AM,64.0,62.1,93,29.95,10.0,Calm,Calm,-,N/A,,Clear,0,2013-06-04 06:53:00
3:53 AM,64.0,61.0,90,29.94,10.0,Calm,Calm,-,N/A,,Clear,0,2013-06-04 07:53:00
4:53 AM,63.0,60.1,90,29.95,10.0,Calm,Calm,-,N/A,,Clear,0,2013-06-04 08:53:00
5:53 AM,63.0,60.1,90,29.96,10.0,North,3.5,-,N/A,,Clear,360,2013-06-04 09:53:00
6:53 AM,62.1,60.1,93,29.98,9.0,Calm,Calm,-,N/A,,Clear,0,2013-06-04 10:53:00
7:53 AM,66.9,61.0,81,29.99,10.0,NNW,3.5,-,N/A,,Clear,340,2013-06-04 11:53:00
8:53 AM,71.1,62.1,73,29.99,10.0,Calm,Calm,-,N/A,,Clear,0,2013-06-04 12:53:00
9:53 AM,73.9,62.1,66,30.00,10.0,Calm,Calm,-,N/A,,Clear,0,2013-06-04 13:53:00
10:53 AM,78.1,64.0,62,30.00,10.0,NNW,4.6,-,N/A,,Clear,330,2013-06-04 14:53:00
11:53 AM,81.0,62.1,52,30.00,10.0,Calm,Calm,-,N/A,,Clear,0,2013-06-04 15:53:00
12:53 PM,84.0,63.0,49,29.99,10.0,Calm,Calm,-,N/A,,Clear,0,2013-06-04 16:53:00
1:53 PM,84.9,64.0,49,29.99,10.0,Variable,6.9,-,N/A,,Mostly Cloudy,0,2013-06-04 17:53:00
2:53 PM,86.0,64.0,48,29.98,10.0,Variable,5.8,-,N/A,,Clear,0,2013-06-04 18:53:00
3:53 PM,87.1,62.1,43,29.96,10.0,NW,4.6,-,N/A,,Clear,320,2013-06-04 19:53:00
4:53 PM,86.0,61.0,43,29.95,10.0,Variable,3.5,-,N/A,,Partly Cloudy,0,2013-06-04 20:53:00
5:53 PM,87.1,61.0,41,29.94,10.0,NW,5.8,-,N/A,,Partly Cloudy,320,2013-06-04 21:53:00
6:53 PM,86.0,62.1,44,29.93,10.0,NNE,6.9,-,N/A,,Clear,30,2013-06-04 22:53:00
7:53 PM,82.9,63.0,51,29.94,10.0,ENE,3.5,-,N/A,,Clear,70,2013-06-04 23:53:00
8:53 PM,75.9,66.0,71,29.95,10.0,Calm,Calm,-,N/A,,Clear,0,2013-06-05 00:53:00
9:53 PM,75.0,66.9,76,29.96,10.0,Calm,Calm,-,N/A,,Clear,0,2013-06-05 01:53:00
10:53 PM,72.0,66.0,81,29.98,10.0,Calm,Calm,-,N/A,,Clear,0,2013-06-05 02:53:00
11:53 PM,69.1,66.0,90,29.99,10.0,ESE,4.6,-,N/A,,Clear,110,2013-06-05 03:53:00